Date,TemperatureHighF,TemperatureAvgF,TemperatureLowF,DewpointHighF,DewpointAvgF,DewpointLowF,HumidityHigh,HumidityAvg,HumidityLow,PressureMaxIn,PressureMinIn,WindSpeedMaxMPH,WindSpeedAvgMPH,GustSpeedMaxMPH,PrecipitationSumIn
2013-8-1,76.0,70.3,65.0,73.0,68.1,63.0,99,93,83,0.00,40.00,6,3,11,2.57
2013-8-2,85.0,73.7,63.0,71.0,66.1,62.0,100,80,49,0.00,40.00,6,2,11,0.11
2013-8-3,80.0,69.3,64.0,71.0,66.7,64.0,100,92,68,0.00,40.00,5,2,10,0.13
2013-8-4,79.0,69.3,59.0,64.0,59.6,53.0,100,75,43,0.00,40.00,10,4,21,0.05
2013-8-5,79.0,67.1,56.0,63.0,57.2,53.0,99,75,42,0.00,40.00,7,2,15,0.00
2013-8-6,71.0,64.5,59.0,67.0,63.0,58.0,99,95,78,0.00,40.00,6,2,10,0.84
2013-8-7,79.0,70.7,64.0,73.0,68.2,63.0,99,92,83,0.00,40.00,6,3,12,0.59
2013-8-8,87.0,77.6,70.0,76.0,71.8,67.0,99,84,60,0.00,40.00,4,3,11,0.04
2013-8-9,89.0,79.1,74.0,77.0,74.4,72.0,99,86,67,0.00,40.00,8,4,16,0.06
2013-8-10,83.0,76.0,67.0,76.0,67.9,62.0,99,78,51,0.00,40.00,5,3,9,0.05
2013-8-11,85.0,73.1,63.0,71.0,65.8,61.0,100,80,52,0.00,40.00,5,2,11,0.00
2013-8-12,86.0,75.1,65.0,75.0,69.9,65.0,99,85,57,0.00,40.00,7,2,11,0.00
2013-8-13,82.0,73.9,70.0,75.0,68.8,-99.9,99,88,64,0.00,40.00,7,3,17,1.35
2013-8-14,74.0,67.2,56.0,70.0,55.6,49.0,98,69,49,0.00,40.00,10,6,21,0.18
2013-8-15,77.0,59.5,52.0,60.0,42.1,-99.9,99,69,39,0.00,40.00,5,2,10,0.00
2013-8-16,79.0,63.2,51.0,63.0,51.5,-99.9,99,75,42,0.00,40.00,5,1,9,0.00
2013-8-17,80.0,66.3,54.0,62.0,57.7,54.0,99,77,45,0.00,40.00,5,2,10,0.00
2013-8-18,75.0,67.0,62.0,65.0,60.7,-99.9,98,84,65,0.00,40.00,6,2,11,0.03
2013-8-19,77.0,64.5,61.0,67.0,54.8,-99.9,99,85,68,0.00,40.00,6,2,11,0.01
2013-8-20,87.0,71.6,61.0,71.0,63.9,-99.9,99,83,49,0.00,40.00,4,2,11,0.00
2013-8-21,89.0,75.9,65.0,77.0,69.9,65.0,100,84,55,0.00,40.00,4,2,10,0.00
2013-8-22,87.0,75.9,69.0,74.0,71.2,65.0,99,87,58,0.00,40.00,8,3,15,0.49
2013-8-23,79.0,71.5,63.0,70.0,65.9,60.0,99,84,58,0.00,40.00,5,2,11,0.38
2013-8-24,81.0,68.7,57.0,65.0,60.1,55.0,99,78,41,0.00,40.00,6,2,11,0.00
2013-8-25,81.0,65.5,53.0,69.0,54.8,-99.9,99,75,42,0.00,40.00,4,2,8,0.00
2013-8-26,84.0,70.3,57.0,68.0,61.8,56.0,98,78,50,0.00,40.00,6,3,13,0.00
2013-8-27,86.0,76.6,70.0,71.0,68.1,65.0,90,76,56,0.00,40.00,9,4,15,0.00
2013-8-28,82.0,76.2,71.0,75.0,71.4,70.0,99,86,73,0.00,40.00,6,3,10,0.34
2013-8-29,83.0,74.7,67.0,72.0,69.9,66.0,99,86,64,0.00,40.00,5,4,13,0.34
2013-8-30,85.0,73.6,65.0,72.0,68.7,65.0,99,86,64,0.00,40.00,5,2,11,0.06
2013-8-31,88.0,77.6,69.0,74.0,70.8,67.0,99,81,60,0.00,40.00,6,3,12,0.02